Regional Weather Roundup
Issued by NWS

Home | Current Version | Previous Version | Text Only | Print | Product List | Glossary Off
Versions: 1 2 3 4 5 6 7 8 9 10 11 12 13 14 15 16 17 18 19 20 21 22 23 24 25 26 27 28 29 30 31 32 33 34 35 36 37 38 39 40 41 42 43 44 45 46 47 48 49 50

983
ASUS44 KJAN 192303
RWRMS

MISSISSIPPI HOURLY WEATHER ROUNDUP
NATIONAL WEATHER SERVICE JACKSON MS
600 PM CDT SUN OCT 19 2014

NOTE: "FAIR: INDICATES FEW OR NO CLOUDS BELOW 12,000 FEET WITH NO
SIGNIFICANT WEATHER AND/OR OBSTRUCTIONS TO VISIBILITY.

MSZ001>002-007>008-010>013-018>021-025>028-034>036-200000-
NORTHWEST MISSISSIPPI

CITY           SKY/WX    TMP DP  RH WIND       PRES   REMARKS
CLARKSDALE     FAIR      66  48  52 CALM      30.11S
CLEVELAND      FAIR      66  49  54 CALM      30.09S
GREENWOOD      CLEAR     66  50  56 N3        30.09S
GREENVILLE     CLEAR     67  45  45 N3        30.09S
GRENADA          N/A    N/A N/A N/A MISG        N/A
OLIVE BRANCH   PTCLDY    63  48  59 CALM      30.11S
OXFORD         FAIR      63  50  63 NE3       30.12S
TUNICA         CLEAR     63  46  55 N5        30.11S HAZE
$$

MSZ003>006-009-014>017-022>024-029>033-037>039-200000-
NORTHEAST MISSISSIPPI

CITY           SKY/WX    TMP DP  RH WIND       PRES   REMARKS
COLUMBUS AFB   CLEAR     65  50  58 N6        30.09S
CORINTH          N/A     64  48  55 CALM        N/A
GOLDN TRIANGLE CLEAR     66  46  48 N6        30.09S
TUPELO         CLEAR     65  47  52 E5        30.09F
$$

MSZ040-058-200000-
CENTRAL MISSISSIPPI

CITY           SKY/WX    TMP DP  RH WIND       PRES   REMARKS
JACKSON INTL   PTCLDY    68  47  46 CALM      30.08S
JACKSON HAWKNS CLEAR     71  44  37 CALM      30.08S
MERIDIAN KEY   CLEAR     67  51  56 NW3       30.07S
MERIDIAN NAS   CLEAR     69  47  45 NW3       30.08R
RAYMOND        FAIR      68  64  88 CALM      30.08S
VICKSBURG      CLEAR     68  46  45 NE5       30.08F
$$

MSZ059>079-200000-
SOUTH MISSISSIPPI

CITY           SKY/WX    TMP DP  RH WIND       PRES   REMARKS
BROOKHAVEN     FAIR      70  48  46 CALM      30.08F
COLUMBIA         N/A    N/A N/A N/A MISG        N/A
HATTIESBURG    CLEAR     71  48  43 N5        30.07S
MCCOMB         CLEAR     72  47  40 CALM      30.07R
NATCHEZ        CLEAR     68  52  56 N5        30.08S
PINE BELT      CLEAR     68  46  45 CALM      30.09S
$$

MSZ080>082-200000-
COASTAL MISSISSIPPI

CITY           SKY/WX    TMP DP  RH WIND       PRES   REMARKS
BAY ST LOUIS   CLEAR     72  52  49 CALM      30.05S
BILOXI         CLEAR     71  53  53 S3        30.05R
PASCAGOULA     CLEAR     69  53  56 S3        30.05S
GULFPORT       CLEAR     71  55  56 CALM      30.04S
$$



USA.gov is the U.S. government's official web portal to all federal, state and local government web resources and services.